Regional Weather Roundup
Issued by NWS

Home | Current Version | Previous Version | Graphics & Text | Print | Product List | Glossary Off
Versions: 1 2 3 4 5 6 7 8 9 10 11 12 13 14 15 16 17 18 19 20 21 22 23 24 25 26 27 28 29 30 31 32 33 34 35 36 37 38 39 40 41 42 43 44 45 46 47 48 49 50

000
ASUS43 KDTX 260201
RWRMI
MICHIGAN HOURLY REGIONAL WEATHER ROUNDUP
NATIONAL WEATHER SERVICE DETROIT/PONTIAC MI
1000 PM EDT FRI MAY 25 2018

NOTE: "FAIR" INDICATES FEW OR NO CLOUDS BELOW 12,000 FEET WITH NO
SIGNIFICANT WEATHER AND/OR OBSTRUCTION TO VISIBILITY.

MIZ047>049-052>055-059>063-066>070-074>076-081>083-260300-
SOUTHEAST LOWER MICHIGAN

CITY           SKY/WX    TMP DP  RH WIND       PRES   REMARKS
ADRIAN         FAIR      69  57  65 CALM      29.83S
ALMA           FAIR      67  63  86 CALM      29.79F
ANN ARBOR      FAIR      70  56  61 CALM      29.81S
BAD AXE        FAIR      71  60  69 W3        29.78S
CARO           FAIR      70  61  72 CALM      29.77S
DETROIT CITY   FAIR      75  54  47 S8        29.81S
DETROIT        MOCLDY    75  55  49 SE8       29.81F
FLINT          FAIR      73  58  59 S5        29.79S
GROSSE ILE     FAIR      66  62  87 S5        29.81S
HILLSDALE      FAIR      68  54  60 CALM      29.83S
HOWELL         FAIR      76  55  48 S5        29.81S

CITY           SKY/WX    TMP DP  RH WIND       PRES   REMARKS
JACKSON        FAIR      73  53  49 S7        29.82S
LAMBERTVILLE   FAIR      70  56  61 CALM      29.82S
LANSING        FAIR      74  62  66 CALM      29.80F
LAPEER         FAIR      70  60  69 CALM      29.80S
MASON          FAIR      74  62  66 CALM      29.81R
MONROE         FAIR      67  60  79 CALM      29.81S
MT. CLEMENS    PTCLDY    67  60  76 S8        29.81S
PONTIAC        FAIR      77  57  50 SW5       29.80S
PORT HOPE        N/A     69  56  62 S5        29.75S
PORT HURON     FAIR      72  52  49 SW3       29.80R
TRI CITIES     FAIR      77  60  55 W5        29.78S
MIDLAND        FAIR      68  61  78 CALM      29.76F
TROY           FAIR      79  52  38 S6        29.82S
SAGINAW HB     FAIR      75  55  50 CALM      29.77S
$$
MIZ043>046-050>051-056>058-064>065-071>073-077>080-260300-
SOUTHWEST LOWER MICHIGAN

CITY           SKY/WX    TMP DP  RH WIND       PRES   REMARKS
BATTLE CREEK   FAIR      73  59  61 S6        29.81S
BENTON HARBOR  FAIR      72  65  78 E3        29.77S
BIG RAPIDS     FAIR      69  59  70 SW9       29.77F
COLDWATER      FAIR      67  52  57 SE5       29.82S
FREMONT        FAIR      74  62  66 CALM      29.77S
HOLLAND        FAIR      72  62  71 CALM      29.78S
GRAND RAPIDS   MOCLDY    73  62  68 S5        29.79S
IONIA          FAIR      73  61  66 CALM      29.79S
KALAMAZOO      FAIR      78  58  49 S3        29.80S
LUDINGTON      FAIR      73  61  65 S3        29.74S
MARSHALL       FAIR      74  54  49 S3        29.81R
MOUNT PLEASANT FAIR      76  60  58 CALM      29.77F
MUSKEGON       MOCLDY    75  58  55 S6        29.77S
SOUTH HAVEN    FAIR      72  64  74 CALM      29.78S
$$
MIZ016>042-260300-
NORTHERN LOWER MICHIGAN

CITY           SKY/WX    TMP DP  RH WIND       PRES   REMARKS
ALPENA         FAIR      69  62  78 CALM      29.75R
BEAVER ISLAND  FAIR      58  53  82 SW3       29.72F
BELLAIRE       FAIR      70  62  76 CALM      29.72S
CADILLAC       FAIR      71  59  65 S5        29.77S
CHARLEVOIX     FAIR      64  56  75 CALM      29.74F
FRANKFORT      FAIR      77  60  55 SW6       29.72S
GAYLORD        FAIR      72  61  68 S5        29.76R
GRAYLING       FAIR      74  56  53 SW3       29.75R
HARBOR SPRINGS FAIR      61  58  90 CALM      29.72F
HOUGHTON LAKE  FAIR      75  56  51 S6        29.77S
MANISTEE       FAIR      75  62  64 S7        29.73S
OSCODA         FAIR      68  60  75 SW5       29.73R
PELLSTON       FAIR      67  61  81 NE3       29.72S
ROGERS CITY    FAIR      61  55  82 CALM      29.76R
TRAVERSE CITY  CLOUDY    80  61  52 S5        29.70S
$$
MIZ007>008-015-260300-
EASTERN UPPER MICHIGAN

CITY           SKY/WX    TMP DP  RH WIND       PRES   REMARKS
KINROSS        FAIR      64  63  96 S6        29.72S
MACKINAC ISLAN FAIR      61  61 100 CALM      29.72S
NEWBERRY       FAIR      63  62  97 S9        29.69F
S. S. MARIE    FAIR      67  62  84 SE5       29.70F
$$
MIZ004>006-011>014-085-260300-
CENTRAL UPPER MICHIGAN

CITY           SKY/WX    TMP DP  RH WIND       PRES   REMARKS
MANISTIQUE     CLOUDY    55  54  95 S6        29.70S
ESCANABA       HVY RAIN  67  61  81 SW24G35   29.69R
MENOMINEE      TSTM      72  68  87 NW14G20   29.70R
SAWYER-GWINN   CLOUDY    72  61  68 S18G25    29.71R
$$
MIZ001>003-009>011-084-260300-
WESTERN UPPER MICHIGAN

CITY           SKY/WX    TMP DP  RH WIND       PRES   REMARKS
IRON MOUNTAIN  FAIR      68  60  75 W3        29.66F
HOUGHTON       FAIR      65  59  81 NE7       29.62S
COPPER HARBOR    N/A     63  58  83 SW13G20   29.60F
IRONWOOD       FAIR      74  63  68 SW6       29.66S
$$

ABBREVIATIONS USED IN REMARKS
   TC - TEMPERATURE IN CELSIUS
  WCI - WIND CHILL INDEX
   HX - HEAT INDEX
  VSB - VISIBILITY




USA.gov is the U.S. government's official web portal to all federal, state and local government web resources and services.